Year,Month,Day,Hour,Minute,Value (Times are PST for windgust in km/hr)
2013,09,28,00,00,6.40
2013,09,28,00,01,1.60
2013,09,28,00,02,1.60
2013,09,28,00,04,1.60
2013,09,28,00,11,3.20
2013,09,28,00,12,6.40
2013,09,28,00,13,6.40
2013,09,28,00,14,3.20
2013,09,28,00,15,1.60
2013,09,28,00,16,1.60
2013,09,28,00,18,3.20
2013,09,28,00,19,6.40
2013,09,28,00,20,3.20
2013,09,28,00,21,1.60
2013,09,28,00,22,3.20
2013,09,28,00,23,3.20
2013,09,28,00,24,6.40
2013,09,28,00,25,6.40
2013,09,28,00,26,3.20
2013,09,28,00,27,6.40
2013,09,28,00,28,1.60
2013,09,28,00,29,3.20
2013,09,28,00,30,1.60
2013,09,28,00,31,1.60
2013,09,28,00,32,1.60
2013,09,28,00,35,3.20
2013,09,28,00,36,1.60
2013,09,28,00,37,6.40
2013,09,28,00,38,3.20
2013,09,28,00,39,3.20
2013,09,28,00,40,3.20
2013,09,28,00,41,3.20
2013,09,28,00,42,3.20
2013,09,28,00,43,1.60
2013,09,28,00,44,6.40
2013,09,28,00,45,6.40
2013,09,28,00,46,3.20
2013,09,28,00,47,3.20
2013,09,28,00,48,1.60
2013,09,28,00,49,1.60
2013,09,28,00,50,1.60
2013,09,28,00,51,3.20
2013,09,28,00,52,6.40
2013,09,28,00,53,6.40
2013,09,28,00,54,6.40
2013,09,28,00,55,3.20
2013,09,28,00,56,3.20
2013,09,28,00,57,3.20
2013,09,28,00,58,3.20
2013,09,28,00,59,1.60
2013,09,28,01,00,3.20
2013,09,28,01,01,6.40
2013,09,28,01,02,1.60
2013,09,28,01,03,3.20
2013,09,28,01,04,3.20
2013,09,28,01,05,3.20
2013,09,28,01,06,3.20
2013,09,28,01,07,6.40
2013,09,28,01,08,6.40
2013,09,28,01,09,3.20
2013,09,28,01,10,1.60
2013,09,28,01,12,6.40
2013,09,28,01,13,1.60
2013,09,28,01,14,6.40
2013,09,28,01,15,1.60
2013,09,28,01,16,3.20
2013,09,28,01,17,1.60
2013,09,28,01,18,1.60
2013,09,28,01,19,3.20
2013,09,28,01,20,3.20
2013,09,28,01,21,1.60
2013,09,28,01,22,1.60
2013,09,28,01,23,1.60
2013,09,28,01,24,3.20
2013,09,28,01,26,3.20
2013,09,28,01,27,3.20
2013,09,28,01,28,3.20
2013,09,28,01,29,1.60
2013,09,28,01,30,3.20
2013,09,28,01,31,1.60
2013,09,28,01,32,6.40
2013,09,28,01,33,6.40
2013,09,28,01,34,6.40
2013,09,28,01,35,3.20
2013,09,28,01,36,3.20
2013,09,28,01,37,3.20
2013,09,28,01,38,3.20
2013,09,28,01,39,3.20
2013,09,28,01,40,3.20
2013,09,28,01,41,3.20
2013,09,28,01,42,6.40
2013,09,28,01,43,6.40
2013,09,28,01,44,3.20
2013,09,28,01,45,3.20
2013,09,28,01,46,3.20
2013,09,28,01,47,8.10
2013,09,28,01,48,3.20
2013,09,28,01,49,3.20
2013,09,28,01,50,3.20
2013,09,28,01,51,3.20
2013,09,28,01,52,3.20
2013,09,28,01,54,1.60
2013,09,28,01,55,1.60
2013,09,28,01,56,1.60
2013,09,28,01,57,3.20
2013,09,28,01,58,6.40
2013,09,28,01,59,6.40
2013,09,28,02,00,6.40
2013,09,28,02,01,3.20
2013,09,28,02,02,6.40
2013,09,28,02,03,1.60
2013,09,28,02,04,1.60
2013,09,28,02,05,1.60
2013,09,28,02,06,8.10
2013,09,28,02,09,1.60
2013,09,28,02,10,1.60
2013,09,28,02,11,3.20
2013,09,28,02,12,1.60
2013,09,28,02,13,1.60
2013,09,28,02,14,3.20
2013,09,28,02,15,3.20
2013,09,28,02,16,1.60
2013,09,28,02,17,3.20
2013,09,28,02,18,1.60
2013,09,28,02,50,1.60
2013,09,28,02,51,1.60
2013,09,28,02,52,1.60
2013,09,28,02,53,3.20
2013,09,28,02,54,3.20
2013,09,28,02,55,3.20
2013,09,28,02,56,3.20
2013,09,28,02,57,3.20
2013,09,28,02,58,6.40
2013,09,28,02,59,6.40
2013,09,28,03,00,6.40
2013,09,28,03,01,3.20
2013,09,28,03,02,6.40
2013,09,28,03,03,3.20
2013,09,28,03,04,3.20
2013,09,28,03,05,3.20
2013,09,28,03,06,3.20
2013,09,28,03,07,6.40
2013,09,28,03,08,6.40
2013,09,28,03,09,6.40
2013,09,28,03,10,6.40
2013,09,28,03,11,6.40
2013,09,28,03,12,4.80
2013,09,28,03,13,6.40
2013,09,28,03,14,9.60
2013,09,28,03,15,9.60
2013,09,28,03,16,8.10
2013,09,28,03,17,6.40
2013,09,28,03,18,8.10
2013,09,28,03,19,6.40
2013,09,28,03,20,8.10
2013,09,28,03,21,3.20
2013,09,28,03,22,8.10
2013,09,28,03,23,3.20
2013,09,28,03,24,8.10
2013,09,28,03,25,6.40
2013,09,28,03,26,3.20
2013,09,28,03,27,8.10
2013,09,28,03,28,6.40
2013,09,28,03,29,4.80
2013,09,28,03,30,8.10
2013,09,28,03,31,6.40
2013,09,28,03,32,6.40
2013,09,28,03,33,9.60
2013,09,28,03,34,9.60
2013,09,28,03,35,9.60
2013,09,28,03,36,8.10
2013,09,28,03,37,8.10
2013,09,28,03,38,9.60
2013,09,28,03,39,11.30
2013,09,28,03,40,11.30
2013,09,28,03,41,8.10
2013,09,28,03,42,8.10
2013,09,28,03,43,9.60
2013,09,28,03,44,9.60
2013,09,28,03,45,8.10
2013,09,28,03,46,9.60
2013,09,28,03,47,6.40
2013,09,28,03,48,6.40
2013,09,28,03,49,8.10
2013,09,28,03,50,6.40
2013,09,28,03,51,6.40
2013,09,28,03,52,6.40
2013,09,28,03,53,6.40
2013,09,28,03,54,8.10
2013,09,28,03,55,9.60
2013,09,28,03,56,6.40
2013,09,28,03,57,6.40
2013,09,28,03,59,3.20
2013,09,28,04,03,6.40
2013,09,28,04,05,1.60
2013,09,28,04,08,3.20
2013,09,28,04,09,3.20
2013,09,28,04,14,1.60
2013,09,28,04,15,1.60
2013,09,28,04,16,1.60
2013,09,28,04,17,1.60
2013,09,28,04,18,3.20
2013,09,28,04,19,3.20
2013,09,28,04,20,1.60
2013,09,28,04,21,3.20
2013,09,28,04,22,6.40
2013,09,28,04,23,1.60
2013,09,28,04,24,3.20
2013,09,28,04,27,3.20
2013,09,28,04,28,1.60
2013,09,28,04,30,6.40
2013,09,28,04,31,1.60
2013,09,28,04,32,1.60
2013,09,28,04,33,1.60
2013,09,28,04,34,6.40
2013,09,28,04,35,3.20
2013,09,28,04,37,3.20
2013,09,28,04,39,1.60
2013,09,28,04,40,3.20
2013,09,28,04,41,3.20
2013,09,28,04,42,3.20
2013,09,28,04,43,6.40
2013,09,28,04,44,6.40
2013,09,28,04,45,6.40
2013,09,28,04,46,6.40
2013,09,28,04,47,6.40
2013,09,28,04,48,6.40
2013,09,28,04,49,6.40
2013,09,28,04,50,6.40
2013,09,28,04,51,3.20
2013,09,28,04,52,3.20
2013,09,28,04,53,3.20
2013,09,28,04,54,6.40
2013,09,28,04,55,8.10
2013,09,28,04,56,8.10
2013,09,28,04,57,8.10
2013,09,28,04,58,6.40
2013,09,28,04,59,8.10
2013,09,28,05,00,8.10
2013,09,28,05,01,6.40
2013,09,28,05,02,3.20
2013,09,28,05,03,6.40
2013,09,28,05,04,6.40
2013,09,28,05,05,6.40
2013,09,28,05,06,4.80
2013,09,28,05,07,4.80
2013,09,28,05,08,4.80
2013,09,28,05,09,4.80
2013,09,28,05,10,6.40
2013,09,28,05,11,6.40
2013,09,28,05,12,4.80
2013,09,28,05,13,8.10
2013,09,28,05,14,3.20
2013,09,28,05,15,6.40
2013,09,28,05,16,4.80
2013,09,28,05,17,3.20
2013,09,28,05,18,1.60
2013,09,28,05,19,4.80
2013,09,28,05,20,3.20
2013,09,28,05,21,1.60
2013,09,28,05,22,4.80
2013,09,28,05,23,3.20
2013,09,28,05,24,3.20
2013,09,28,05,25,4.80
2013,09,28,05,26,4.80
2013,09,28,05,27,6.40
2013,09,28,05,28,3.20
2013,09,28,05,29,4.80
2013,09,28,05,30,4.80
2013,09,28,05,31,4.80
2013,09,28,05,32,4.80
2013,09,28,05,33,8.10
2013,09,28,05,34,6.40
2013,09,28,05,35,8.10
2013,09,28,05,36,6.40
2013,09,28,05,37,6.40
2013,09,28,05,38,6.40
2013,09,28,05,39,6.40
2013,09,28,05,40,9.60
2013,09,28,05,41,8.10
2013,09,28,05,42,11.30
2013,09,28,05,43,8.10
2013,09,28,05,44,11.30
2013,09,28,05,45,9.60
2013,09,28,05,46,9.60
2013,09,28,05,47,9.60
2013,09,28,05,48,11.30
2013,09,28,05,49,11.30
2013,09,28,05,50,6.40
2013,09,28,05,51,8.10
2013,09,28,05,52,9.60
2013,09,28,05,53,9.60
2013,09,28,05,54,8.10
2013,09,28,05,55,14.50
2013,09,28,05,56,6.40
2013,09,28,05,57,9.60
2013,09,28,05,58,9.60
2013,09,28,05,59,11.30
2013,09,28,06,00,9.60
2013,09,28,06,01,11.30
2013,09,28,06,02,11.30
2013,09,28,06,03,11.30
2013,09,28,06,04,14.50
2013,09,28,06,05,14.50
2013,09,28,06,06,9.60
2013,09,28,06,07,8.10
2013,09,28,06,08,8.10
2013,09,28,06,09,12.90
2013,09,28,06,10,11.30
2013,09,28,06,11,17.70
2013,09,28,06,12,19.30
2013,09,28,06,13,17.70
2013,09,28,06,14,12.90
2013,09,28,06,15,9.60
2013,09,28,06,16,9.60
2013,09,28,06,17,19.30
2013,09,28,06,18,12.90
2013,09,28,06,19,22.50
2013,09,28,06,20,20.90
2013,09,28,06,21,14.50
2013,09,28,06,22,8.10
2013,09,28,06,23,11.30
2013,09,28,06,24,17.70
2013,09,28,06,25,24.20
2013,09,28,06,26,22.50
2013,09,28,06,27,14.50
2013,09,28,06,28,17.70
2013,09,28,06,29,25.70
2013,09,28,06,30,14.50
2013,09,28,06,31,14.50
2013,09,28,06,32,12.90
2013,09,28,06,33,19.30
2013,09,28,06,34,17.70
2013,09,28,06,35,17.70
2013,09,28,06,36,25.70
2013,09,28,06,37,19.30
2013,09,28,06,38,12.90
2013,09,28,06,39,20.90
2013,09,28,06,40,20.90
2013,09,28,06,41,12.90
2013,09,28,06,42,19.30
2013,09,28,06,43,9.60
2013,09,28,06,44,6.40
2013,09,28,06,45,8.10
2013,09,28,06,46,17.70
2013,09,28,06,47,24.20
2013,09,28,06,48,19.30
2013,09,28,06,49,17.70
2013,09,28,06,50,17.70
2013,09,28,06,51,30.60
2013,09,28,06,52,11.30
2013,09,28,06,53,20.90
2013,09,28,06,54,22.50
2013,09,28,06,55,17.70
2013,09,28,06,56,17.70
2013,09,28,06,57,25.70
2013,09,28,06,58,12.90
2013,09,28,06,59,19.30
2013,09,28,07,00,14.50
2013,09,28,07,01,32.20
2013,09,28,07,02,30.60
2013,09,28,07,03,14.50
2013,09,28,07,04,24.20
2013,09,28,07,05,17.70
2013,09,28,07,06,14.50
2013,09,28,07,07,11.30
2013,09,28,07,08,14.50
2013,09,28,07,09,24.20
2013,09,28,07,10,17.70
2013,09,28,07,11,17.70
2013,09,28,07,12,19.30
2013,09,28,07,13,30.60
2013,09,28,07,14,27.40
2013,09,28,07,15,40.20
2013,09,28,07,16,25.70
2013,09,28,07,17,20.90
2013,09,28,07,18,11.30
2013,09,28,07,19,11.30
2013,09,28,07,20,25.70
2013,09,28,07,21,17.70
2013,09,28,07,22,16.10
2013,09,28,07,23,24.20
2013,09,28,07,24,17.70
2013,09,28,07,25,38.60
2013,09,28,07,26,22.50
2013,09,28,07,27,29.00
2013,09,28,07,28,25.70
2013,09,28,07,29,27.40
2013,09,28,07,30,24.20
2013,09,28,07,31,20.90
2013,09,28,07,32,24.20
2013,09,28,07,33,35.40
2013,09,28,07,34,33.80
2013,09,28,07,35,27.40
2013,09,28,07,36,24.20
2013,09,28,07,37,24.20
2013,09,28,07,38,20.90
2013,09,28,07,39,27.40
2013,09,28,07,40,40.20
2013,09,28,07,41,22.50
2013,09,28,07,42,25.70
2013,09,28,07,43,29.00
2013,09,28,07,44,25.70
2013,09,28,07,45,16.10
2013,09,28,07,46,32.20
2013,09,28,07,47,35.40
2013,09,28,07,48,35.40
2013,09,28,07,49,24.20
2013,09,28,07,50,24.20
2013,09,28,07,51,25.70
2013,09,28,07,52,32.20
2013,09,28,07,53,32.20
2013,09,28,07,54,30.60
2013,09,28,07,55,25.70
2013,09,28,07,56,30.60
2013,09,28,07,57,24.20
2013,09,28,07,58,27.40
2013,09,28,07,59,22.50
2013,09,28,08,00,24.20
2013,09,28,08,01,29.00
2013,09,28,08,02,33.80
2013,09,28,08,03,35.40
2013,09,28,08,04,27.40
2013,09,28,08,05,24.20
2013,09,28,08,06,25.70
2013,09,28,08,07,24.20
2013,09,28,08,08,30.60
2013,09,28,08,09,24.20
2013,09,28,08,10,17.70
2013,09,28,08,11,33.80
2013,09,28,08,12,29.00
2013,09,28,08,13,24.20
2013,09,28,08,14,22.50
2013,09,28,08,15,17.70
2013,09,28,08,16,20.90
2013,09,28,08,17,24.20
2013,09,28,08,18,17.70
2013,09,28,08,19,24.20
2013,09,28,08,20,22.50
2013,09,28,08,21,14.50
2013,09,28,08,22,19.30
2013,09,28,08,23,19.30
2013,09,28,08,24,25.70
2013,09,28,08,25,29.00
2013,09,28,08,26,19.30
2013,09,28,08,27,22.50
2013,09,28,08,28,19.30
2013,09,28,08,29,17.70
2013,09,28,08,30,19.30
2013,09,28,08,31,19.30
2013,09,28,08,32,24.20
2013,09,28,08,33,24.20
2013,09,28,08,34,14.50
2013,09,28,08,35,22.50
2013,09,28,08,36,22.50
2013,09,28,08,37,22.50
2013,09,28,08,38,12.90
2013,09,28,08,39,24.20
2013,09,28,08,40,22.50
2013,09,28,08,41,11.30
2013,09,28,08,42,25.70
2013,09,28,08,43,25.70
2013,09,28,08,44,12.90
2013,09,28,08,45,16.10
2013,09,28,08,46,20.90
2013,09,28,08,47,20.90
2013,09,28,08,48,16.10
2013,09,28,08,49,24.20
2013,09,28,08,50,24.20
2013,09,28,08,51,22.50
2013,09,28,08,52,9.60
2013,09,28,08,53,22.50
2013,09,28,08,54,17.70
2013,09,28,08,55,19.30
2013,09,28,08,56,25.70
2013,09,28,08,57,19.30
2013,09,28,08,58,17.70
2013,09,28,08,59,19.30
2013,09,28,09,00,19.30
2013,09,28,09,01,14.50
2013,09,28,09,02,22.50
2013,09,28,09,03,19.30
2013,09,28,09,04,19.30
2013,09,28,09,05,17.70
2013,09,28,09,06,11.30
2013,09,28,09,07,8.10
2013,09,28,09,08,16.10
2013,09,28,09,09,6.40
2013,09,28,09,10,14.50
2013,09,28,09,11,11.30
2013,09,28,09,12,12.90
2013,09,28,09,13,6.40
2013,09,28,09,14,4.80
2013,09,28,09,15,11.30
2013,09,28,09,16,11.30
2013,09,28,09,17,12.90
2013,09,28,09,18,9.60
2013,09,28,09,19,9.60
2013,09,28,09,20,6.40
2013,09,28,09,21,12.90
2013,09,28,09,22,6.40
2013,09,28,09,23,4.80
2013,09,28,09,24,19.30
2013,09,28,09,25,17.70
2013,09,28,09,26,16.10
2013,09,28,09,27,9.60
2013,09,28,09,28,11.30
2013,09,28,09,29,11.30
2013,09,28,09,30,14.50
2013,09,28,09,31,16.10
2013,09,28,09,32,12.90
2013,09,28,09,33,17.70
2013,09,28,09,34,16.10
2013,09,28,09,35,9.60
2013,09,28,09,36,14.50
2013,09,28,09,37,11.30
2013,09,28,09,38,11.30
2013,09,28,09,39,9.60
2013,09,28,09,40,9.60
2013,09,28,09,41,14.50
2013,09,28,09,42,11.30
2013,09,28,09,43,14.50
2013,09,28,09,44,8.10
2013,09,28,09,45,17.70
2013,09,28,09,46,9.60
2013,09,28,09,47,12.90
2013,09,28,09,48,8.10
2013,09,28,09,49,8.10
2013,09,28,09,50,9.60
2013,09,28,09,51,8.10
2013,09,28,09,52,6.40
2013,09,28,09,53,9.60
2013,09,28,09,54,12.90
2013,09,28,09,55,12.90
2013,09,28,09,56,12.90
2013,09,28,09,57,9.60
2013,09,28,09,58,17.70
2013,09,28,09,59,17.70
2013,09,28,10,00,12.90
2013,09,28,10,01,12.90
2013,09,28,10,02,9.60
2013,09,28,10,03,11.30
2013,09,28,10,04,12.90
2013,09,28,10,05,12.90
2013,09,28,10,06,12.90
2013,09,28,10,07,9.60
2013,09,28,10,08,11.30
2013,09,28,10,09,12.90
2013,09,28,10,10,17.70
2013,09,28,10,11,12.90
2013,09,28,10,12,8.10
2013,09,28,10,13,8.10
2013,09,28,10,14,12.90
2013,09,28,10,15,14.50
2013,09,28,10,16,11.30
2013,09,28,10,17,17.70
2013,09,28,10,18,11.30
2013,09,28,10,19,11.30
2013,09,28,10,20,14.50
2013,09,28,10,21,14.50
2013,09,28,10,22,17.70
2013,09,28,10,23,12.90
2013,09,28,10,24,11.30
2013,09,28,10,25,12.90
2013,09,28,10,26,14.50
2013,09,28,10,27,19.30
2013,09,28,10,28,12.90
2013,09,28,10,29,16.10
2013,09,28,10,30,16.10
2013,09,28,10,31,17.70
2013,09,28,10,32,12.90
2013,09,28,10,33,17.70
2013,09,28,10,34,16.10
2013,09,28,10,35,11.30
2013,09,28,10,36,12.90
2013,09,28,10,37,12.90
2013,09,28,10,38,14.50
2013,09,28,10,39,12.90
2013,09,28,10,40,12.90
2013,09,28,10,41,9.60
2013,09,28,10,42,12.90
2013,09,28,10,43,11.30
2013,09,28,10,44,19.30
2013,09,28,10,45,11.30
2013,09,28,10,46,14.50
2013,09,28,10,47,11.30
2013,09,28,10,48,11.30
2013,09,28,10,49,8.10
2013,09,28,10,50,11.30
2013,09,28,10,51,17.70
2013,09,28,10,52,11.30
2013,09,28,10,53,12.90
2013,09,28,10,54,9.60
2013,09,28,10,55,9.60
2013,09,28,10,56,12.90
2013,09,28,10,57,11.30
2013,09,28,10,58,14.50
2013,09,28,10,59,14.50
2013,09,28,11,00,12.90
2013,09,28,11,01,9.60
2013,09,28,11,02,14.50
2013,09,28,11,03,9.60
2013,09,28,11,04,17.70
2013,09,28,11,05,12.90
2013,09,28,11,06,12.90
2013,09,28,11,07,12.90
2013,09,28,11,08,12.90
2013,09,28,11,09,11.30
2013,09,28,11,10,11.30
2013,09,28,11,11,12.90
2013,09,28,11,12,14.50
2013,09,28,11,13,11.30
2013,09,28,11,14,12.90
2013,09,28,11,15,14.50
2013,09,28,11,16,11.30
2013,09,28,11,17,11.30
2013,09,28,11,18,11.30
2013,09,28,11,19,12.90
2013,09,28,11,20,12.90
2013,09,28,11,21,14.50
2013,09,28,11,22,14.50
2013,09,28,11,23,11.30
2013,09,28,11,24,11.30
2013,09,28,11,25,11.30
2013,09,28,11,26,9.60
2013,09,28,11,27,11.30
2013,09,28,11,28,14.50
2013,09,28,11,29,9.60
2013,09,28,11,30,8.10
2013,09,28,11,31,9.60
2013,09,28,11,32,11.30
2013,09,28,11,33,14.50
2013,09,28,11,34,8.10
2013,09,28,11,35,8.10
2013,09,28,11,36,14.50
2013,09,28,11,37,12.90
2013,09,28,11,38,14.50
2013,09,28,11,39,11.30
2013,09,28,11,40,11.30
2013,09,28,11,41,8.10
2013,09,28,11,42,8.10
2013,09,28,11,43,6.40
2013,09,28,11,44,12.90
2013,09,28,11,45,11.30
2013,09,28,11,46,9.60
2013,09,28,11,47,9.60
2013,09,28,11,48,12.90
2013,09,28,11,49,11.30
2013,09,28,11,50,14.50
2013,09,28,11,51,12.90
2013,09,28,11,52,9.60
2013,09,28,11,53,12.90
2013,09,28,11,54,14.50
2013,09,28,11,55,14.50
2013,09,28,11,56,12.90
2013,09,28,11,57,11.30
2013,09,28,11,58,9.60
2013,09,28,11,59,12.90
2013,09,28,12,00,9.60
2013,09,28,12,01,6.40
2013,09,28,12,02,3.20
2013,09,28,12,03,8.10
2013,09,28,12,04,12.90
2013,09,28,12,05,9.60
2013,09,28,12,06,11.30
2013,09,28,12,07,11.30
2013,09,28,12,08,8.10
2013,09,28,12,09,11.30
2013,09,28,12,10,11.30
2013,09,28,12,11,11.30
2013,09,28,12,12,9.60
2013,09,28,12,13,9.60
2013,09,28,12,14,11.30
2013,09,28,12,15,9.60
2013,09,28,12,16,12.90
2013,09,28,12,17,14.50
2013,09,28,12,18,11.30
2013,09,28,12,19,8.10
2013,09,28,12,20,8.10
2013,09,28,12,21,8.10
2013,09,28,12,22,8.10
2013,09,28,12,23,11.30
2013,09,28,12,24,17.70
2013,09,28,12,25,12.90
2013,09,28,12,26,11.30
2013,09,28,12,27,9.60
2013,09,28,12,28,9.60
2013,09,28,12,29,6.40
2013,09,28,12,30,6.40
2013,09,28,12,31,6.40
2013,09,28,12,32,6.40
2013,09,28,12,33,8.10
2013,09,28,12,34,9.60
2013,09,28,12,35,8.10
2013,09,28,12,36,6.40
2013,09,28,12,37,1.60
2013,09,28,12,38,9.60
2013,09,28,12,39,6.40
2013,09,28,12,40,6.40
2013,09,28,12,41,6.40
2013,09,28,12,42,1.60
2013,09,28,12,43,1.60
2013,09,28,12,44,3.20
2013,09,28,12,47,1.60
2013,09,28,12,52,1.60
2013,09,28,12,54,1.60
2013,09,28,12,55,1.60
2013,09,28,12,57,1.60
2013,09,28,12,58,1.60
2013,09,28,13,00,1.60
2013,09,28,13,01,3.20
2013,09,28,13,02,1.60
2013,09,28,13,03,6.40
2013,09,28,13,04,3.20
2013,09,28,13,05,3.20
2013,09,28,13,06,1.60
2013,09,28,13,07,1.60
2013,09,28,13,08,1.60
2013,09,28,13,09,3.20
2013,09,28,13,10,8.10
2013,09,28,13,11,6.40
2013,09,28,13,12,6.40
2013,09,28,13,13,14.50
2013,09,28,13,14,19.30
2013,09,28,13,15,20.90
2013,09,28,13,16,19.30
2013,09,28,13,17,19.30
2013,09,28,13,18,17.70
2013,09,28,13,19,20.90
2013,09,28,13,20,12.90
2013,09,28,13,21,8.10
2013,09,28,13,22,3.20
2013,09,28,13,23,3.20
2013,09,28,13,24,1.60
2013,09,28,13,26,3.20
2013,09,28,13,27,6.40
2013,09,28,13,28,4.80
2013,09,28,13,29,3.20
2013,09,28,13,30,11.30
2013,09,28,13,31,8.10
2013,09,28,13,32,9.60
2013,09,28,13,33,8.10
2013,09,28,13,34,8.10
2013,09,28,13,35,6.40
2013,09,28,13,36,11.30
2013,09,28,13,37,14.50
2013,09,28,13,38,12.90
2013,09,28,13,39,9.60
2013,09,28,13,40,11.30
2013,09,28,13,41,16.10
2013,09,28,13,42,4.80
2013,09,28,13,43,4.80
2013,09,28,13,44,1.60
2013,09,28,13,45,4.80
2013,09,28,13,46,4.80
2013,09,28,13,47,6.40
2013,09,28,13,48,4.80
2013,09,28,13,49,6.40
2013,09,28,13,50,6.40
2013,09,28,13,51,9.60
2013,09,28,13,52,6.40
2013,09,28,13,53,4.80
2013,09,28,13,54,6.40
2013,09,28,13,55,9.60
2013,09,28,13,56,11.30
2013,09,28,13,57,8.10
2013,09,28,13,58,4.80
2013,09,28,13,59,4.80
2013,09,28,14,00,4.80
2013,09,28,14,01,8.10
2013,09,28,14,02,8.10
2013,09,28,14,03,8.10
2013,09,28,14,04,6.40
2013,09,28,14,05,6.40
2013,09,28,14,07,6.40
2013,09,28,14,08,3.20
2013,09,28,14,09,9.60
2013,09,28,14,10,3.20
2013,09,28,14,11,6.40
2013,09,28,14,12,8.10
2013,09,28,14,13,3.20
2013,09,28,14,14,8.10
2013,09,28,14,15,11.30
2013,09,28,14,16,11.30
2013,09,28,14,17,8.10
2013,09,28,14,18,12.90
2013,09,28,14,19,14.50
2013,09,28,14,20,11.30
2013,09,28,14,21,11.30
2013,09,28,14,22,12.90
2013,09,28,14,23,12.90
2013,09,28,14,24,12.90
2013,09,28,14,25,12.90
2013,09,28,14,26,11.30
2013,09,28,14,27,12.90
2013,09,28,14,28,12.90
2013,09,28,14,29,9.60
2013,09,28,14,30,9.60
2013,09,28,14,31,11.30
2013,09,28,14,32,12.90
2013,09,28,14,33,16.10
2013,09,28,14,34,17.70
2013,09,28,14,35,12.90
2013,09,28,14,36,12.90
2013,09,28,14,37,17.70
2013,09,28,14,38,11.30
2013,09,28,14,39,19.30
2013,09,28,14,40,11.30
2013,09,28,14,41,11.30
2013,09,28,14,42,17.70
2013,09,28,14,43,19.30
2013,09,28,14,44,12.90
2013,09,28,14,45,12.90
2013,09,28,14,46,8.10
2013,09,28,14,47,17.70
2013,09,28,14,48,12.90
2013,09,28,14,49,17.70
2013,09,28,14,50,19.30
2013,09,28,14,51,11.30
2013,09,28,14,52,16.10
2013,09,28,14,53,17.70
2013,09,28,14,54,14.50
2013,09,28,14,55,11.30
2013,09,28,14,56,4.80
2013,09,28,14,57,6.40
2013,09,28,14,58,9.60
2013,09,28,14,59,6.40
2013,09,28,15,00,6.40
2013,09,28,15,01,9.60
2013,09,28,15,02,12.90
2013,09,28,15,03,8.10
2013,09,28,15,04,9.60
2013,09,28,15,05,9.60
2013,09,28,15,06,12.90
2013,09,28,15,07,8.10
2013,09,28,15,08,11.30
2013,09,28,15,09,14.50
2013,09,28,15,10,14.50
2013,09,28,15,11,8.10
2013,09,28,15,12,9.60
2013,09,28,15,13,6.40
2013,09,28,15,14,11.30
2013,09,28,15,15,11.30
2013,09,28,15,16,12.90
2013,09,28,15,17,14.50
2013,09,28,15,18,11.30
2013,09,28,15,19,14.50
2013,09,28,15,20,6.40
2013,09,28,15,21,11.30
2013,09,28,15,22,17.70
2013,09,28,15,23,17.70
2013,09,28,15,24,9.60
2013,09,28,15,25,17.70
2013,09,28,15,26,12.90
2013,09,28,15,27,12.90
2013,09,28,15,28,11.30
2013,09,28,15,29,14.50
2013,09,28,15,30,14.50
2013,09,28,15,31,12.90
2013,09,28,15,32,4.80
2013,09,28,15,33,9.60
2013,09,28,15,34,9.60
2013,09,28,15,35,11.30
2013,09,28,15,36,1.60
2013,09,28,15,37,1.60
2013,09,28,15,38,8.10
2013,09,28,15,39,6.40
2013,09,28,15,40,1.60
2013,09,28,15,41,6.40
2013,09,28,15,42,6.40
2013,09,28,15,43,6.40
2013,09,28,15,44,9.60
2013,09,28,15,45,9.60
2013,09,28,15,46,12.90
2013,09,28,15,47,11.30
2013,09,28,15,48,12.90
2013,09,28,15,49,9.60
2013,09,28,15,50,9.60
2013,09,28,15,51,8.10
2013,09,28,15,52,6.40
2013,09,28,15,53,6.40
2013,09,28,15,54,8.10
2013,09,28,15,55,8.10
2013,09,28,15,56,6.40
2013,09,28,15,57,3.20
2013,09,28,15,58,9.60
2013,09,28,15,59,4.80
2013,09,28,16,00,4.80
2013,09,28,16,01,1.60
2013,09,28,16,02,6.40
2013,09,28,16,03,9.60
2013,09,28,16,04,14.50
2013,09,28,16,05,14.50
2013,09,28,16,06,12.90
2013,09,28,16,07,14.50
2013,09,28,16,08,25.70
2013,09,28,16,09,19.30
2013,09,28,16,10,20.90
2013,09,28,16,11,24.20
2013,09,28,16,12,19.30
2013,09,28,16,13,19.30
2013,09,28,16,14,30.60
2013,09,28,16,15,24.20
2013,09,28,16,16,24.20
2013,09,28,16,17,17.70
2013,09,28,16,18,24.20
2013,09,28,16,19,30.60
2013,09,28,16,20,24.20
2013,09,28,16,21,25.70
2013,09,28,16,22,20.90
2013,09,28,16,23,32.20
2013,09,28,16,24,27.40
2013,09,28,16,25,30.60
2013,09,28,16,26,32.20
2013,09,28,16,27,25.70
2013,09,28,16,28,30.60
2013,09,28,16,29,25.70
2013,09,28,16,30,20.90
2013,09,28,16,31,19.30
2013,09,28,16,32,19.30
2013,09,28,16,33,27.40
2013,09,28,16,34,22.50
2013,09,28,16,35,20.90
2013,09,28,16,36,14.50
2013,09,28,16,37,16.10
2013,09,28,16,38,19.30
2013,09,28,16,39,22.50
2013,09,28,16,40,22.50
2013,09,28,16,41,17.70
2013,09,28,16,42,27.40
2013,09,28,16,43,20.90
2013,09,28,16,44,24.20
2013,09,28,16,45,22.50
2013,09,28,16,46,29.00
2013,09,28,16,47,22.50
2013,09,28,16,48,20.90
2013,09,28,16,49,17.70
2013,09,28,16,50,17.70
2013,09,28,16,51,29.00
2013,09,28,16,52,24.20
2013,09,28,16,53,19.30
2013,09,28,16,54,25.70
2013,09,28,16,55,27.40
2013,09,28,16,56,20.90
2013,09,28,16,57,24.20
2013,09,28,16,58,22.50
2013,09,28,16,59,24.20
2013,09,28,17,00,19.30
2013,09,28,17,01,16.10
2013,09,28,17,02,19.30
2013,09,28,17,03,16.10
2013,09,28,17,04,19.30
2013,09,28,17,05,24.20
2013,09,28,17,06,19.30
2013,09,28,17,07,24.20
2013,09,28,17,08,27.40
2013,09,28,17,09,22.50
2013,09,28,17,10,24.20
2013,09,28,17,11,30.60
2013,09,28,17,12,22.50
2013,09,28,17,13,30.60
2013,09,28,17,14,22.50
2013,09,28,17,15,14.50
2013,09,28,17,16,16.10
2013,09,28,17,17,16.10
2013,09,28,17,18,16.10
2013,09,28,17,19,14.50
2013,09,28,17,20,16.10
2013,09,28,17,21,11.30
2013,09,28,17,22,22.50
2013,09,28,17,23,12.90
2013,09,28,17,24,12.90
2013,09,28,17,25,16.10
2013,09,28,17,26,19.30
2013,09,28,17,27,16.10
2013,09,28,17,28,20.90
2013,09,28,17,29,16.10
2013,09,28,17,30,20.90
2013,09,28,17,31,22.50
2013,09,28,17,32,19.30
2013,09,28,17,33,20.90
2013,09,28,17,34,19.30
2013,09,28,17,35,20.90
2013,09,28,17,36,19.30
2013,09,28,17,37,24.20
2013,09,28,17,38,25.70
2013,09,28,17,39,20.90
2013,09,28,17,40,25.70
2013,09,28,17,41,19.30
2013,09,28,17,42,17.70
2013,09,28,17,43,17.70
2013,09,28,17,44,19.30
2013,09,28,17,45,20.90
2013,09,28,17,46,14.50
2013,09,28,17,47,17.70
2013,09,28,17,48,14.50
2013,09,28,17,49,16.10
2013,09,28,17,50,16.10
2013,09,28,17,51,14.50
2013,09,28,17,52,12.90
2013,09,28,17,53,11.30
2013,09,28,17,54,12.90
2013,09,28,17,55,17.70
2013,09,28,17,56,11.30
2013,09,28,17,57,16.10
2013,09,28,17,58,14.50
2013,09,28,17,59,12.90
2013,09,28,18,00,16.10
2013,09,28,18,01,20.90
2013,09,28,18,02,19.30
2013,09,28,18,03,20.90
2013,09,28,18,04,17.70
2013,09,28,18,05,12.90
2013,09,28,18,06,17.70
2013,09,28,18,07,16.10
2013,09,28,18,08,14.50
2013,09,28,18,09,12.90
2013,09,28,18,10,14.50
2013,09,28,18,11,16.10
2013,09,28,18,12,17.70
2013,09,28,18,13,20.90
2013,09,28,18,14,14.50
2013,09,28,18,15,14.50
2013,09,28,18,16,14.50
2013,09,28,18,17,20.90
2013,09,28,18,18,14.50
2013,09,28,18,19,20.90
2013,09,28,18,20,16.10
2013,09,28,18,21,27.40
2013,09,28,18,22,20.90
2013,09,28,18,23,27.40
2013,09,28,18,24,22.50
2013,09,28,18,25,24.20
2013,09,28,18,26,25.70
2013,09,28,18,27,19.30
2013,09,28,18,28,24.20
2013,09,28,18,29,24.20
2013,09,28,18,30,27.40
2013,09,28,18,31,25.70
2013,09,28,18,32,22.50
2013,09,28,18,33,19.30
2013,09,28,18,34,16.10
2013,09,28,18,35,19.30
2013,09,28,18,36,16.10
2013,09,28,18,37,20.90
2013,09,28,18,38,24.20
2013,09,28,18,39,27.40
2013,09,28,18,40,27.40
2013,09,28,18,41,43.50
2013,09,28,18,42,41.80
2013,09,28,18,43,40.20
2013,09,28,18,44,45.10
2013,09,28,18,45,38.60
2013,09,28,18,46,27.40
2013,09,28,18,47,27.40
2013,09,28,18,48,32.20
2013,09,28,18,49,32.20
2013,09,28,18,50,33.80
2013,09,28,18,51,35.40
2013,09,28,18,52,45.10
2013,09,28,18,53,38.60